Location: Six Mile Lake
(44.9000°N, 79.7170°W)
Time: 13:00:31
(UTC-04:00)

NOAA 18 - Pass Details

Date: 29 June 2022
Orbit: 839 x 860 km, 98.9° (Epoch: 18 August)

Event Time Altitude Azimuth Distance (km) Brightness Sun altitude
Exits shadow 22:26:58 14° 145° (SE) 2,179 6.7 -11.0°
Maximum altitude 22:31:33 57° 70° (ENE) 1,001 5.5 -11.6°
Drops below altitude 10° 22:36:58 10° 353° (N) 2,502 8.6 -12.2°
Sets 22:39:23 0° 350° (N) 3,445 9.6 -12.4°
